Wind_Speed
34 32 31 32 32 32 31 30 30 28 26 23 21 21 20 19 17 17 17 17 15 15 14 13 13 13 13 13 13 13 13 14 14 14 14 14 15 15 16 16 16 16 16 16
35 34 34 33 32 33 33 32 31 29 28 25 23 22 22 22 20 20 20 18 17 17 16 14 14 14 15 15 15 15 15 15 15 15 16 16 17 17 17 17 18 18 18 18
36 35 34 35 33 33 34 34 33 32 30 27 26 25 23 23 21 21 20 20 19 18 18 17 17 17 17 18 18 18 17 17 17 17 18 18 19 18 18 18 19 19 19 19
37 37 38 35 34 34 34 34 34 32 32 30 28 27 26 25 24 23 22 22 21 21 22 21 20 20 20 21 21 20 20 20 20 20 20 20 20 20 20 20 20 21 20 20
36 38 38 36 35 35 36 35 34 34 33 32 31 29 28 27 26 25 25 24 24 23 23 23 23 23 23 23 23 23 23 23 23 23 22 22 22 22 21 21 22 23 22 22
36 37 39 36 35 35 36 37 36 36 35 34 33 31 30 29 29 28 27 27 27 26 26 27 27 26 26 26 27 26 26 26 26 25 25 24 23 24 24 24 24 24 24 24
37 38 39 37 36 36 38 38 36 36 36 35 35 34 33 33 32 30 30 30 30 30 30 30 30 30 30 30 29 29 29 28 28 28 27 27 26 25 26 26 25 26 26 26
38 39 39 37 37 39 39 38 37 37 36 36 36 35 36 36 35 33 33 33 33 34 33 32 32 33 32 32 31 31 31 30 29 29 29 28 28 28 28 28 28 27 27 27
39 38 37 37 38 39 39 38 37 38 38 39 39 38 37 36 36 35 34 34 35 35 35 34 34 34 33 33 33 32 32 31 31 30 30 30 30 30 29 29 29 29 29 29
38 38 37 36 36 37 37 38 38 38 38 39 39 38 38 36 35 35 35 36 35 35 35 35 35 34 34 34 33 33 32 32 32 32 32 31 30 30 30 30 30 30 30 30
37 37 36 35 35 35 36 36 36 36 37 37 38 39 39 40 38 36 36 36 36 36 37 36 35 35 34 34 34 34 33 33 33 33 31 31 31 32 32 32 31 31 32 31
37 36 36 35 35 35 35 35 36 36 36 37 37 37 37 38 39 39 38 37 37 37 36 37 36 35 34 35 34 34 33 33 32 32 32 32 32 32 32 33 33 33 33 32
36 36 36 36 35 35 35 37 37 37 37 38 38 38 37 37 38 39 39 38 38 38 37 37 36 35 35 35 35 34 33 32 31 32 32 32 32 32 32 32 32 33 33 33
35 36 36 36 36 36 37 37 37 37 37 38 38 38 38 38 38 38 38 38 38 38 38 37 36 35 35 35 34 34 33 32 33 33 33 33 33 33 33 33 32 32 33 33
34 35 36 36 37 37 38 38 38 38 38 38 39 39 39 39 39 39 39 39 39 38 38 37 36 36 36 35 35 35 34 34 34 34 34 33 33 34 34 34 33 33 33 33
33 34 35 35 36 36 37 38 36 36 38 38 38 38 39 39 39 39 39 39 38 37 37 37 36 36 36 36 36 36 35 34 34 34 33 33 33 34 34 34 33 33 33 34
30 30 32 34 36 36 35 36 36 36 37 37 37 37 38 38 38 38 37 37 37 37 37 36 35 35 36 36 36 36 35 35 34 34 34 34 34 34 35 35 34 34 34 34
29 29 30 32 33 34 34 35 36 36 36 35 34 35 36 36 37 37 36 37 36 36 35 34 34 34 34 35 36 36 35 35 36 35 34 33 34 34 35 35 34 34 34 35
28 28 29 31 32 33 33 34 34 35 34 32 32 33 34 34 35 36 36 35 33 33 33 33 33 33 33 33 33 34 34 35 34 33 32 33 33 33 33 33 34 34 35 35
25 26 28 29 30 31 31 32 33 34 33 32 31 31 31 32 33 33 33 33 33 32 32 32 32 33 32 32 32 31 32 33 33 33 32 32 33 33 33 33 33 34 34 34
24 24 25 27 29 30 30 30 31 30 30 30 30 29 29 30 30 29 30 31 30 30 30 30 30 31 30 30 30 30 30 30 31 31 31 32 32 32 32 32 32 33 34 34
23 23 24 25 26 27 27 26 27 28 28 29 29 29 29 27 25 26 26 27 26 27 28 29 29 29 29 28 28 28 28 29 29 29 30 30 31 31 32 32 32 32 33 33
21 22 23 24 24 25 26 24 24 25 25 25 25 26 25 24 23 23 23 23 24 25 27 28 28 28 28 27 27 27 28 28 29 29 29 29 30 30 30 30 30 30 30 31
20 20 21 21 21 21 22 21 21 21 21 22 22 22 22 21 21 21 21 22 23 24 25 25 25 26 26 26 26 26 27 27 27 27 28 28 28 28 28 28 28 28 28 29
17 17 17 18 18 18 18 18 17 17 17 17 17 17 17 17 18 19 20 20 21 22 23 23 23 24 24 25 25 25 26 26 26 26 26 27 27 27 27 27 28 28 28 28
13 14 14 14 15 15 14 15 15 15 15 16 15 15 15 16 17 18 19 19 20 21 21 22 22 23 24 24 24 24 24 25 25 25 26 26 26 27 27 27 27 27 27 27
11 11 11 11 11 11 12 13 14 14 14 13 13 14 14 15 17 17 18 19 19 19 20 21 21 21 22 23 23 23 23 23 24 24 24 25 25 26 26 26 26 26 27 26
Wind_Direction
224 225 226 227 226 228 231 235 239 242 245 247 254 262 264 261 262 265 268 267 268 270 271 271 280 286 286 286 291 297 299 302 304 305 309 313 315 316 317 320 320 321 323 323
226 227 229 230 227 228 232 234 236 239 244 245 248 255 256 257 263 263 266 267 264 275 280 276 280 282 284 286 288 291 294 296 299 301 302 304 306 308 310 312 314 317 317 318
229 229 231 232 229 230 233 236 237 239 243 246 248 251 257 260 260 263 264 267 269 275 280 279 277 277 279 285 287 291 291 291 293 295 296 296 299 302 304 305 307 310 311 313
230 229 231 232 231 231 232 236 240 241 243 247 248 249 254 258 260 265 267 269 273 277 278 275 273 275 277 278 282 285 286 288 290 292 296 297 300 299 303 302 304 304 308 309
232 230 231 230 231 232 233 235 237 240 241 245 248 249 251 255 261 266 267 270 272 273 274 273 273 274 276 278 280 281 282 283 285 287 291 293 296 296 298 302 304 304 306 308
233 231 230 229 230 233 236 236 237 240 243 246 249 251 254 256 260 265 266 269 271 271 272 272 272 273 274 276 279 279 278 279 281 283 285 287 290 293 296 299 301 303 304 304
234 233 232 230 230 233 236 238 240 243 246 248 250 252 256 259 260 262 264 265 266 267 270 271 271 272 274 276 276 276 274 275 277 279 280 283 285 288 292 294 296 297 299 299
235 235 234 232 232 234 237 240 242 244 246 248 251 254 257 260 261 262 263 263 265 266 268 269 270 272 274 274 273 273 271 273 274 275 277 281 282 285 287 289 292 294 295 296
237 238 238 237 236 237 239 241 243 245 246 249 252 255 257 259 260 262 263 264 266 267 269 269 270 271 272 273 272 271 271 273 273 274 276 279 280 282 284 286 289 290 292 293
239 239 240 239 239 239 241 242 246 248 249 250 252 255 256 258 259 261 262 264 265 267 268 270 270 270 271 271 272 272 271 271 272 275 277 278 278 280 282 284 285 287 289 291
240 241 241 240 240 241 244 246 249 251 252 254 254 255 257 258 260 261 262 264 266 267 268 269 270 270 270 271 271 271 272 271 273 273 274 276 277 278 279 280 283 284 286 288
241 241 242 240 241 243 245 247 248 250 252 254 256 257 258 260 260 261 263 265 267 268 268 268 269 270 269 269 270 271 272 272 270 272 274 275 276 276 277 279 281 282 283 284
240 241 242 241 241 243 246 247 248 251 253 254 256 259 261 263 263 263 264 265 266 266 267 268 268 268 269 269 270 271 271 271 271 272 273 275 276 277 277 279 280 281 282 283
239 240 242 242 243 244 246 248 249 252 254 256 258 260 261 263 263 262 262 264 265 267 267 268 268 267 267 267 268 269 270 270 271 272 272 272 274 276 278 279 279 279 280 281
239 240 242 243 244 246 247 249 250 251 253 256 259 260 262 263 264 264 265 265 266 267 267 267 268 266 266 266 266 267 268 270 271 272 273 273 273 275 277 279 279 277 278 279
239 241 242 243 244 247 249 250 252 254 253 256 258 260 262 264 265 265 266 266 266 266 266 267 267 265 264 264 264 266 268 269 269 271 271 273 274 275 277 278 279 279 279 279
239 241 243 243 245 248 251 252 254 255 254 256 259 260 262 263 264 264 265 265 265 265 265 266 265 264 263 263 264 265 266 267 270 272 273 274 275 276 276 277 278 278 279 280
244 246 247 247 249 250 252 255 255 258 257 258 260 261 261 263 263 263 264 264 264 264 264 264 264 264 263 264 265 265 266 269 271 272 273 274 276 276 275 275 276 277 278 279
247 250 252 252 252 252 253 255 257 258 259 261 263 263 264 264 264 263 262 263 264 264 264 264 263 262 263 264 266 267 268 269 271 271 272 273 275 275 275 276 276 276 278 279
253 255 257 256 254 253 254 255 256 257 257 259 262 263 264 265 265 263 262 262 263 264 264 264 264 263 263 265 266 268 268 269 270 271 271 273 274 275 275 277 277 276 277 278
256 259 261 260 256 254 255 256 256 257 257 258 260 263 265 267 265 263 262 262 262 263 263 263 262 263 264 266 266 268 270 270 271 273 273 273 274 275 276 277 276 276 278 278
261 262 263 263 260 257 256 257 257 258 259 260 262 264 265 265 263 264 264 262 261 261 261 261 262 262 264 266 268 269 271 271 272 274 274 274 275 276 276 276 277 278 278 279
263 264 264 264 260 258 259 259 260 259 259 259 261 262 261 262 263 263 262 263 263 263 263 263 263 264 265 267 269 271 272 272 273 274 275 276 276 277 277 277 277 278 279 279
263 265 264 263 261 258 256 258 259 258 258 258 258 258 259 261 261 261 262 264 265 266 267 267 267 268 269 270 272 273 275 275 275 275 275 275 275 275 276 277 277 279 279 279
260 259 261 261 259 255 251 252 255 257 259 259 257 258 258 258 260 261 263 265 267 269 269 268 268 268 270 271 273 275 276 276 276 276 276 274 274 275 276 277 277 278 279 279
258 258 262 258 250 246 249 252 252 255 257 255 256 255 256 259 263 265 265 267 269 270 271 271 270 270 270 272 273 274 275 275 276 276 276 275 276 277 277 278 279 280 281 280
256 254 256 255 251 248 249 250 250 252 252 253 253 256 260 264 266 268 270 272 273 272 273 274 274 272 271 272 274 276 277 276 276 276 277 277 278 279 280 279 279 280 280 280
Height
5867 5872 5874 5877 5880 5882 5884 5886 5888 5891 5892 5895 5897 5898 5899 5899 5901 5902 5903 5903 5905 5905 5905 5904 5905 5905 5905 5905 5904 5903 5901 5900 5898 5896 5895 5894 5892 5890 5887 5885 5883 5880 5878 5876
5860 5864 5867 5871 5874 5877 5879 5881 5882 5884 5887 5890 5891 5893 5893 5894 5895 5896 5898 5899 5900 5901 5901 5900 5901 5901 5901 5900 5899 5898 5897 5896 5895 5893 5892 5890 5888 5886 5884 5882 5879 5877 5875 5872
5853 5857 5860 5863 5868 5870 5872 5875 5877 5879 5882 5883 5885 5887 5889 5890 5891 5892 5893 5894 5895 5896 5896 5896 5896 5896 5896 5896 5894 5893 5893 5892 5890 5889 5887 5885 5883 5882 5880 5878 5876 5873 5871 5869
5845 5850 5852 5859 5861 5863 5865 5868 5870 5873 5875 5877 5880 5882 5883 5885 5886 5887 5888 5889 5890 5890 5890 5890 5890 5890 5890 5890 5889 5889 5888 5887 5885 5884 5882 5880 5879 5877 5875 5873 5871 5869 5866 5864
5836 5840 5844 5850 5853 5856 5858 5861 5864 5866 5869 5871 5873 5875 5877 5879 5880 5882 5883 5883 5884 5884 5884 5885 5884 5884 5883 5883 5882 5882 5882 5881 5879 5878 5877 5875 5873 5871 5869 5868 5866 5864 5861 5859
5828 5832 5835 5842 5846 5848 5851 5853 5857 5859 5862 5865 5867 5868 5871 5872 5874 5875 5876 5876 5876 5877 5877 5877 5877 5877 5876 5875 5875 5875 5874 5874 5873 5871 5870 5869 5868 5866 5864 5862 5860 5858 5856 5854
5820 5823 5827 5834 5838 5840 5844 5847 5851 5853 5855 5857 5859 5862 5863 5865 5866 5867 5867 5868 5869 5869 5869 5869 5869 5869 5869 5868 5868 5867 5866 5866 5865 5864 5863 5862 5860 5859 5857 5856 5854 5852 5850 5848
5811 5815 5821 5825 5829 5832 5835 5839 5842 5845 5847 5849 5851 5853 5854 5856 5857 5858 5858 5859 5860 5860 5860 5860 5860 5860 5860 5859 5859 5858 5857 5856 5856 5855 5855 5854 5853 5851 5850 5848 5847 5845 5843 5841
5804 5809 5812 5816 5820 5823 5827 5830 5833 5836 5839 5841 5843 5844 5846 5847 5847 5848 5849 5850 5851 5851 5851 5851 5851 5851 5850 5850 5849 5849 5848 5848 5847 5846 5846 5845 5844 5843 5842 5841 5839 5837 5835 5833
5795 5799 5803 5807 5811 5815 5818 5822 5825 5827 5830 5832 5834 5835 5836 5836 5837 5838 5839 5840 5841 5841 5842 5842 5842 5841 5841 5841 5840 5839 5838 5838 5838 5837 5837 5836 5835 5834 5833 5832 5831 5829 5827 5825
5786 5791 5794 5799 5803 5806 5810 5813 5815 5818 5820 5823 5824 5826 5826 5826 5827 5828 5829 5830 5830 5831 5831 5831 5831 5831 5830 5830 5830 5830 5829 5828 5828 5827 5827 5826 5825 5824 5823 5823 5821 5820 5819 5817
5779 5783 5787 5790 5794 5797 5801 5804 5806 5809 5811 5812 5814 5815 5815 5816 5817 5817 5818 5819 5819 5820 5820 5820 5821 5821 5820 5820 5820 5819 5819 5818 5818 5817 5817 5817 5816 5815 5814 5813 5812 5810 5809 5808
5771 5774 5778 5781 5784 5787 5790 5794 5796 5799 5800 5802 5803 5804 5805 5806 5806 5807 5807 5807 5808 5809 5809 5809 5809 5810 5810 5810 5810 5809 5809 5808 5808 5808 5807 5807 5806 5805 5804 5803 5801 5800 5799 5797
5762 5765 5769 5772 5776 5778 5781 5783 5786 5788 5789 5791 5792 5793 5794 5795 5795 5795 5796 5796 5797 5798 5798 5798 5798 5798 5799 5799 5799 5799 5799 5799 5798 5798 5797 5796 5796 5795 5794 5793 5792 5791 5789 5787
5754 5756 5760 5763 5766 5769 5771 5773 5775 5777 5779 5780 5781 5782 5783 5783 5783 5784 5784 5785 5785 5786 5787 5787 5787 5787 5787 5788 5788 5788 5788 5788 5788 5788 5787 5786 5785 5785 5783 5782 5781 5780 5779 5778
5745 5748 5750 5753 5756 5759 5760 5762 5764 5766 5767 5768 5769 5770 5771 5771 5771 5772 5772 5773 5773 5774 5775 5775 5776 5776 5776 5776 5777 5777 5777 5777 5777 5776 5776 5776 5775 5774 5773 5771 5770 5770 5769 5768
5737 5739 5742 5744 5746 5749 5750 5752 5753 5754 5754 5757 5758 5758 5758 5759 5759 5760 5760 5761 5761 5762 5763 5763 5764 5764 5764 5764 5765 5765 5765 5766 5765 5765 5765 5765 5764 5763 5762 5761 5760 5759 5758 5757
5729 5731 5733 5734 5736 5738 5740 5741 5742 5743 5744 5744 5745 5746 5746 5746 5747 5748 5748 5749 5749 5750 5751 5751 5752 5752 5753 5753 5753 5754 5754 5755 5755 5754 5754 5753 5753 5752 5751 5750 5749 5748 5747 5746
5721 5723 5724 5725 5727 5728 5729 5731 5732 5733 5734 5734 5735 5735 5735 5735 5735 5736 5736 5737 5738 5739 5740 5740 5740 5741 5741 5742 5742 5743 5743 5743 5743 5743 5743 5743 5742 5740 5739 5739 5738 5737 5736 5735
5713 5714 5715 5715 5716 5717 5719 5720 5721 5722 5723 5724 5724 5724 5724 5724 5724 5724 5725 5726 5727 5728 5729 5729 5729 5730 5731 5732 5732 5732 5732 5732 5733 5733 5733 5732 5731 5730 5729 5728 5727 5726 5725 5724
5704 5705 5705 5705 5706 5707 5707 5708 5710 5711 5712 5712 5713 5714 5714 5714 5713 5714 5714 5715 5717 5717 5718 5719 5720 5721 5721 5722 5722 5723 5722 5722 5723 5722 5722 5721 5720 5720 5719 5718 5717 5716 5715 5714
5695 5696 5696 5696 5697 5697 5697 5698 5699 5700 5702 5703 5704 5705 5705 5704 5704 5705 5705 5707 5707 5708 5708 5710 5711 5712 5712 5713 5713 5713 5713 5713 5713 5712 5712 5711 5710 5710 5709 5708 5707 5705 5704 5703
5688 5688 5688 5688 5688 5689 5689 5690 5691 5692 5693 5695 5695 5696 5696 5696 5697 5697 5698 5699 5700 5700 5701 5701 5702 5703 5703 5704 5704 5704 5704 5703 5703 5702 5702 5702 5701 5700 5699 5698 5697 5696 5694 5693
5680 5680 5680 5680 5681 5682 5683 5683 5684 5685 5686 5687 5688 5688 5689 5690 5690 5691 5692 5692 5693 5693 5693 5693 5694 5694 5695 5695 5695 5695 5695 5694 5693 5693 5693 5692 5691 5691 5690 5689 5688 5686 5685 5684
5673 5674 5674 5675 5675 5676 5678 5679 5679 5680 5681 5682 5682 5683 5683 5684 5684 5685 5685 5685 5685 5685 5685 5686 5686 5686 5687 5687 5687 5687 5686 5685 5685 5684 5684 5683 5682 5682 5681 5680 5679 5678 5676 5675
5669 5669 5670 5670 5671 5672 5673 5675 5675 5676 5677 5678 5678 5679 5679 5679 5679 5680 5679 5679 5679 5679 5678 5678 5678 5679 5679 5679 5679 5678 5678 5677 5676 5676 5675 5674 5674 5673 5672 5671 5670 5668 5667 5666
5665 5665 5666 5667 5668 5669 5670 5671 5672 5673 5673 5674 5675 5675 5675 5675 5675 5674 5674 5674 5673 5673 5672 5672 5672 5671 5672 5671 5671 5671 5670 5669 5668 5667 5666 5665 5665 5664 5663 5662 5660 5659 5658 5657